Time,TemperatureF,DewpointF,PressureIn,WindDirection,WindDirectionDegrees,WindSpeedMPH,WindSpeedGustMPH,Humidity,HourlyPrecipIn,Conditions,Clouds,dailyrainin,SolarRadiationWatts/m^2,SoftwareType,DateUTC
2013-01-22 00:02:00,66.6,25.3,-100.00,NW,317,4.0,5.0,21,0.00,,,0.00,0.0,meteohub,2013-01-22 05:02:00,
2013-01-22 00:07:00,66.6,25.3,-100.00,NW,317,3.0,5.0,21,0.00,,,0.00,0.0,meteohub,2013-01-22 05:07:00,
2013-01-22 00:12:00,66.6,25.3,-100.00,NNW,336,5.0,7.0,21,0.00,,,0.00,0.0,meteohub,2013-01-22 05:12:00,
2013-01-22 00:17:00,66.4,25.3,-100.00,NNW,338,3.0,7.0,21,0.00,,,0.00,0.0,meteohub,2013-01-22 05:17:00,
2013-01-22 00:22:00,66.4,25.3,-100.00,NW,324,1.0,7.0,21,0.00,,,0.00,0.0,meteohub,2013-01-22 05:22:00,
2013-01-22 00:32:00,66.2,25.2,-100.00,NW,321,4.0,7.0,21,0.00,,,0.00,0.0,meteohub,2013-01-22 05:32:00,
2013-01-22 00:42:00,66.0,25.0,-100.00,NW,321,4.0,7.0,21,0.00,,,0.00,0.0,meteohub,2013-01-22 05:42:00,
2013-01-22 00:47:00,65.8,25.9,-100.00,NNW,330,4.0,7.0,22,0.00,,,0.00,0.0,meteohub,2013-01-22 05:47:00,
2013-01-22 00:52:00,65.8,25.9,-100.00,NW,325,2.0,7.0,22,0.00,,,0.00,0.0,meteohub,2013-01-22 05:52:00,
2013-01-22 00:57:00,65.7,24.6,-100.00,NNW,329,4.0,7.0,21,0.00,,,0.00,0.0,meteohub,2013-01-22 05:57:00,
2013-01-22 01:02:00,65.7,25.7,-100.00,NNW,329,4.0,7.0,22,0.00,,,0.00,0.0,meteohub,2013-01-22 06:02:00,
2013-01-22 01:07:00,65.5,25.7,-100.00,WNW,301,6.0,7.0,22,0.00,,,0.00,0.0,meteohub,2013-01-22 06:07:00,
2013-01-22 01:12:00,65.5,25.7,-100.00,NNW,327,3.0,7.0,22,0.00,,,0.00,0.0,meteohub,2013-01-22 06:12:00,
2013-01-22 01:17:00,65.5,25.7,-100.00,NW,315,5.0,7.0,22,0.00,,,0.00,0.0,meteohub,2013-01-22 06:17:00,
2013-01-22 01:27:00,65.3,25.5,-100.00,NNW,340,2.0,7.0,22,0.00,,,0.00,0.0,meteohub,2013-01-22 06:27:00,
2013-01-22 01:32:00,65.3,25.5,-100.00,NNW,337,3.0,7.0,22,0.00,,,0.00,0.0,meteohub,2013-01-22 06:32:00,
2013-01-22 01:37:00,65.1,25.3,-100.00,NNW,342,4.0,7.0,22,0.00,,,0.00,0.0,meteohub,2013-01-22 06:37:00,
2013-01-22 01:42:00,65.1,25.3,-100.00,NNW,332,4.0,10.0,22,0.00,,,0.00,0.0,meteohub,2013-01-22 06:42:00,
2013-01-22 01:47:00,65.1,25.3,-100.00,NNW,338,5.0,10.0,22,0.00,,,0.00,0.0,meteohub,2013-01-22 06:47:00,
2013-01-22 01:52:00,65.1,25.3,-100.00,North,355,4.0,10.0,22,0.00,,,0.00,0.0,meteohub,2013-01-22 06:52:00,
2013-01-22 01:57:00,65.1,25.3,-100.00,North,355,4.0,10.0,22,0.00,,,0.00,0.0,meteohub,2013-01-22 06:57:00,
2013-01-22 02:02:00,64.9,25.2,-100.00,NNW,329,6.0,12.0,22,0.00,,,0.00,0.0,meteohub,2013-01-22 07:02:00,
2013-01-22 02:07:00,64.9,25.2,-100.00,NNW,344,6.0,12.0,22,0.00,,,0.00,0.0,meteohub,2013-01-22 07:07:00,
2013-01-22 02:12:00,64.9,25.2,-100.00,NNW,340,3.0,12.0,22,0.00,,,0.00,0.0,meteohub,2013-01-22 07:12:00,
2013-01-22 02:17:00,64.9,25.2,-100.00,NNW,334,3.0,12.0,22,0.00,,,0.00,0.0,meteohub,2013-01-22 07:17:00,
2013-01-22 02:22:00,64.9,25.2,-100.00,NNW,344,5.0,12.0,22,0.00,,,0.00,0.0,meteohub,2013-01-22 07:22:00,
2013-01-22 02:27:00,64.9,25.2,-100.00,NNW,336,6.0,12.0,22,0.00,,,0.00,0.0,meteohub,2013-01-22 07:27:00,
2013-01-22 02:32:00,64.8,25.0,-100.00,NNW,333,3.0,9.0,22,0.00,,,0.00,0.0,meteohub,2013-01-22 07:32:00,
2013-01-22 02:37:00,64.8,25.0,-100.00,North,0,5.0,9.0,22,0.00,,,0.00,0.0,meteohub,2013-01-22 07:37:00,
2013-01-22 02:42:00,64.8,25.0,-100.00,North,350,6.0,9.0,22,0.00,,,0.00,0.0,meteohub,2013-01-22 07:42:00,
2013-01-22 02:47:00,64.8,25.0,-100.00,NNW,337,4.0,9.0,22,0.00,,,0.00,0.0,meteohub,2013-01-22 07:47:00,
2013-01-22 02:52:00,64.8,25.0,-100.00,North,5,7.0,9.0,22,0.00,,,0.00,0.0,meteohub,2013-01-22 07:52:00,
2013-01-22 02:57:00,64.9,25.2,-100.00,North,9,6.0,12.0,22,0.00,,,0.00,0.0,meteohub,2013-01-22 07:57:00,
2013-01-22 03:02:00,64.9,25.2,-100.00,North,349,5.0,12.0,22,0.00,,,0.00,0.0,meteohub,2013-01-22 08:02:00,
2013-01-22 03:07:00,64.9,25.2,-100.00,NNW,331,6.0,12.0,22,0.00,,,0.00,0.0,meteohub,2013-01-22 08:07:00,
2013-01-22 03:12:00,64.9,24.1,-100.00,North,350,7.0,12.0,21,0.00,,,0.00,0.0,meteohub,2013-01-22 08:12:00,
2013-01-22 03:17:00,64.9,24.1,-100.00,NNW,340,5.0,12.0,21,0.00,,,0.00,0.0,meteohub,2013-01-22 08:17:00,
2013-01-22 03:22:00,64.9,24.1,-100.00,NNW,338,7.0,11.0,21,0.00,,,0.00,0.0,meteohub,2013-01-22 08:22:00,
2013-01-22 03:27:00,64.9,24.1,-100.00,NNW,344,6.0,11.0,21,0.00,,,0.00,0.0,meteohub,2013-01-22 08:27:00,
2013-01-22 03:32:00,64.9,24.1,-100.00,North,355,4.0,11.0,21,0.00,,,0.00,0.0,meteohub,2013-01-22 08:32:00,
2013-01-22 03:37:00,65.1,24.3,-100.00,NNW,346,4.0,11.0,21,0.00,,,0.00,0.0,meteohub,2013-01-22 08:37:00,
2013-01-22 03:42:00,65.1,24.3,-100.00,NNW,329,5.0,9.0,21,0.00,,,0.00,0.0,meteohub,2013-01-22 08:42:00,
2013-01-22 03:47:00,65.1,24.3,-100.00,NW,324,6.0,9.0,21,0.00,,,0.00,0.0,meteohub,2013-01-22 08:47:00,
2013-01-22 03:52:00,65.1,24.3,-100.00,NNW,329,5.0,9.0,21,0.00,,,0.00,0.0,meteohub,2013-01-22 08:52:00,
2013-01-22 03:57:00,65.1,24.3,-100.00,NNW,344,4.0,9.0,21,0.00,,,0.00,0.0,meteohub,2013-01-22 08:57:00,
2013-01-22 04:02:00,65.1,24.3,-100.00,NNW,336,3.0,9.0,21,0.00,,,0.00,0.0,meteohub,2013-01-22 09:02:00,
2013-01-22 04:07:00,65.1,24.3,-100.00,NNW,338,1.0,9.0,21,0.00,,,0.00,0.0,meteohub,2013-01-22 09:07:00,
2013-01-22 04:12:00,65.1,24.3,-100.00,NNW,336,6.0,11.0,21,0.00,,,0.00,0.0,meteohub,2013-01-22 09:12:00,
2013-01-22 04:17:00,65.1,24.3,-100.00,NW,321,5.0,11.0,21,0.00,,,0.00,0.0,meteohub,2013-01-22 09:17:00,
2013-01-22 04:22:00,65.1,24.3,-100.00,NW,323,6.0,11.0,21,0.00,,,0.00,0.0,meteohub,2013-01-22 09:22:00,
2013-01-22 04:27:00,65.1,24.3,-100.00,NNW,333,5.0,11.0,21,0.00,,,0.00,0.0,meteohub,2013-01-22 09:27:00,
2013-01-22 04:37:00,64.9,24.1,-100.00,NNW,329,3.0,11.0,21,0.00,,,0.00,0.0,meteohub,2013-01-22 09:37:00,
2013-01-22 04:42:00,64.9,24.1,-100.00,NNW,343,3.0,11.0,21,0.00,,,0.00,0.0,meteohub,2013-01-22 09:42:00,
2013-01-22 04:47:00,64.9,24.1,-100.00,NW,325,5.0,11.0,21,0.00,,,0.00,0.0,meteohub,2013-01-22 09:47:00,
2013-01-22 04:52:00,64.8,23.9,-100.00,NW,326,4.0,11.0,21,0.00,,,0.00,0.0,meteohub,2013-01-22 09:52:00,
2013-01-22 04:57:00,64.8,23.9,-100.00,NNW,331,5.0,11.0,21,0.00,,,0.00,0.0,meteohub,2013-01-22 09:57:00,
2013-01-22 05:02:00,64.8,23.9,-100.00,NNW,329,7.0,8.0,21,0.00,,,0.00,0.0,meteohub,2013-01-22 10:02:00,
2013-01-22 05:12:00,64.8,23.9,-100.00,NNW,330,3.0,8.0,21,0.00,,,0.00,0.0,meteohub,2013-01-22 10:12:00,
2013-01-22 05:17:00,64.6,23.7,-100.00,North,355,6.0,8.0,21,0.00,,,0.00,0.0,meteohub,2013-01-22 10:17:00,
2013-01-22 05:22:00,64.6,23.7,-100.00,NNW,347,6.0,10.0,21,0.00,,,0.00,0.0,meteohub,2013-01-22 10:22:00,
2013-01-22 05:27:00,64.6,23.7,-100.00,NNW,342,6.0,10.0,21,0.00,,,0.00,0.0,meteohub,2013-01-22 10:27:00,
2013-01-22 05:32:00,64.4,23.5,-100.00,NNW,347,7.0,10.0,21,0.00,,,0.00,0.0,meteohub,2013-01-22 10:32:00,
2013-01-22 05:37:00,64.4,23.5,-100.00,NNW,347,3.0,10.0,21,0.00,,,0.00,0.0,meteohub,2013-01-22 10:37:00,
2013-01-22 05:42:00,64.2,23.5,-100.00,NNW,338,5.0,10.0,21,0.00,,,0.00,0.0,meteohub,2013-01-22 10:42:00,
2013-01-22 05:52:00,64.0,23.4,-100.00,NNW,341,5.0,8.0,21,0.00,,,0.00,0.0,meteohub,2013-01-22 10:52:00,
2013-01-22 05:57:00,64.0,23.4,-100.00,NNW,336,4.0,8.0,21,0.00,,,0.00,0.0,meteohub,2013-01-22 10:57:00,
2013-01-22 06:02:00,64.0,23.4,-100.00,NNW,340,5.0,8.0,21,0.00,,,0.00,0.0,meteohub,2013-01-22 11:02:00,
2013-01-22 06:12:00,63.9,23.2,-100.00,NW,322,3.0,8.0,21,0.00,,,0.00,0.0,meteohub,2013-01-22 11:12:00,
2013-01-22 06:17:00,63.9,23.2,-100.00,NNW,345,3.0,8.0,21,0.00,,,0.00,0.0,meteohub,2013-01-22 11:17:00,
2013-01-22 06:22:00,63.7,23.0,-100.00,NW,322,3.0,9.0,21,0.00,,,0.00,0.0,meteohub,2013-01-22 11:22:00,
2013-01-22 06:32:00,63.7,23.0,-100.00,NNW,328,5.0,9.0,21,0.00,,,0.00,0.0,meteohub,2013-01-22 11:32:00,
2013-01-22 06:37:00,63.5,22.8,-100.00,NW,326,3.0,9.0,21,0.00,,,0.00,0.0,meteohub,2013-01-22 11:37:00,
2013-01-22 06:47:00,63.3,22.6,-100.00,NNW,336,3.0,9.0,21,0.00,,,0.00,0.0,meteohub,2013-01-22 11:47:00,
2013-01-22 06:52:00,63.3,22.6,-100.00,NNW,333,5.0,9.0,21,0.00,,,0.00,0.0,meteohub,2013-01-22 11:52:00,
2013-01-22 06:57:00,63.1,22.6,-100.00,NW,325,5.0,9.0,21,0.00,,,0.00,0.0,meteohub,2013-01-22 11:57:00,
2013-01-22 07:07:00,63.1,23.7,-100.00,NNW,339,3.0,9.0,22,0.00,,,0.00,0.0,meteohub,2013-01-22 12:07:00,
2013-01-22 07:12:00,63.0,23.5,-100.00,NNW,343,3.0,9.0,22,0.00,,,0.00,5.0,meteohub,2013-01-22 12:12:00,
2013-01-22 07:22:00,63.0,22.5,-100.00,North,349,4.0,7.0,21,0.00,,,0.00,12.0,meteohub,2013-01-22 12:22:00,
2013-01-22 07:27:00,63.0,22.5,-100.00,NNW,338,3.0,7.0,21,0.00,,,0.00,18.0,meteohub,2013-01-22 12:27:00,
2013-01-22 07:32:00,63.0,22.5,-100.00,NW,326,4.0,7.0,21,0.00,,,0.00,25.0,meteohub,2013-01-22 12:32:00,
2013-01-22 07:37:00,62.8,22.3,-100.00,NNW,336,6.0,7.0,21,0.00,,,0.00,35.0,meteohub,2013-01-22 12:37:00,
2013-01-22 07:47:00,63.0,23.5,-100.00,North,349,4.0,10.0,22,0.00,,,0.00,54.0,meteohub,2013-01-22 12:47:00,
2013-01-22 07:57:00,63.1,23.7,-100.00,NNW,338,6.0,10.0,22,0.00,,,0.00,81.0,meteohub,2013-01-22 12:57:00,
2013-01-22 08:02:00,63.3,23.9,-100.00,NNW,341,4.0,11.0,22,0.00,,,0.00,132.0,meteohub,2013-01-22 13:02:00,
2013-01-22 08:12:00,64.0,23.4,-100.00,NNW,338,6.0,11.0,21,0.00,,,0.00,169.0,meteohub,2013-01-22 13:12:00,
2013-01-22 08:17:00,64.2,23.5,-100.00,North,355,7.0,11.0,21,0.00,,,0.00,162.0,meteohub,2013-01-22 13:17:00,
2013-01-22 08:22:00,64.6,23.7,-100.00,NNW,329,6.0,11.0,21,0.00,,,0.00,169.0,meteohub,2013-01-22 13:22:00,
2013-01-22 08:27:00,64.8,23.9,-100.00,NNW,333,10.0,11.0,21,0.00,,,0.00,123.0,meteohub,2013-01-22 13:27:00,
2013-01-22 08:37:00,64.9,25.2,-100.00,NNW,344,7.0,11.0,22,0.00,,,0.00,190.0,meteohub,2013-01-22 13:37:00,
2013-01-22 08:42:00,65.1,25.3,-100.00,NW,319,6.0,11.0,22,0.00,,,0.00,183.0,meteohub,2013-01-22 13:42:00,
2013-01-22 08:47:00,65.3,25.5,-100.00,NW,326,7.0,11.0,22,0.00,,,0.00,220.0,meteohub,2013-01-22 13:47:00,
2013-01-22 08:52:00,65.5,25.7,-100.00,NNW,343,9.0,12.0,22,0.00,,,0.00,171.0,meteohub,2013-01-22 13:52:00,
2013-01-22 08:57:00,65.5,25.7,-100.00,NNW,338,5.0,12.0,22,0.00,,,0.00,199.0,meteohub,2013-01-22 13:57:00,
2013-01-22 09:02:00,65.7,25.7,-100.00,NNW,334,10.0,12.0,22,0.00,,,0.00,283.0,meteohub,2013-01-22 14:02:00,
2013-01-22 09:07:00,65.8,27.0,-100.00,NNW,348,4.0,12.0,23,0.00,,,0.00,260.0,meteohub,2013-01-22 14:07:00,
2013-01-22 09:12:00,66.4,26.4,-100.00,NW,317,6.0,12.0,22,0.00,,,0.00,257.0,meteohub,2013-01-22 14:12:00,
2013-01-22 09:17:00,66.7,26.6,-100.00,NNW,345,4.0,11.0,22,0.00,,,0.00,345.0,meteohub,2013-01-22 14:17:00,
2013-01-22 09:22:00,67.3,28.2,-100.00,North,350,7.0,11.0,23,0.00,,,0.00,299.0,meteohub,2013-01-22 14:22:00,
2013-01-22 09:27:00,67.3,29.3,-100.00,NNW,343,4.0,11.0,24,0.00,,,0.00,278.0,meteohub,2013-01-22 14:27:00,
2013-01-22 09:37:00,68.0,30.9,-100.00,North,0,5.0,12.0,25,0.00,,,0.00,246.0,meteohub,2013-01-22 14:37:00,
2013-01-22 09:42:00,68.2,32.0,-100.00,North,355,4.0,12.0,26,0.00,,,0.00,244.0,meteohub,2013-01-22 14:42:00,
2013-01-22 09:52:00,68.5,34.2,-100.00,NNW,347,4.0,10.0,28,0.00,,,0.00,318.0,meteohub,2013-01-22 14:52:00,
2013-01-22 10:02:00,68.9,36.1,-100.00,North,5,12.0,12.0,30,0.00,,,0.00,295.0,meteohub,2013-01-22 15:02:00,
2013-01-22 10:07:00,69.1,36.3,-100.00,NNW,342,7.0,10.0,30,0.00,,,0.00,548.0,meteohub,2013-01-22 15:07:00,
2013-01-22 10:12:00,69.3,36.5,-100.00,North,355,8.0,10.0,30,0.00,,,0.00,394.0,meteohub,2013-01-22 15:12:00,
2013-01-22 10:22:00,69.8,37.0,-100.00,North,349,10.0,14.0,30,0.00,,,0.00,431.0,meteohub,2013-01-22 15:22:00,
2013-01-22 10:32:00,70.2,38.1,-100.00,NNW,348,5.0,15.0,31,0.00,,,0.00,589.0,meteohub,2013-01-22 15:32:00,
2013-01-22 10:37:00,70.5,40.1,-100.00,NNW,347,6.0,15.0,33,0.00,,,0.00,580.0,meteohub,2013-01-22 15:37:00,
2013-01-22 10:42:00,70.9,40.3,-100.00,NNW,344,11.0,15.0,33,0.00,,,0.00,436.0,meteohub,2013-01-22 15:42:00,
2013-01-22 10:47:00,70.9,41.9,-100.00,NNW,337,6.0,15.0,35,0.00,,,0.00,390.0,meteohub,2013-01-22 15:47:00,
2013-01-22 10:52:00,71.1,41.4,-100.00,NNW,340,6.0,12.0,34,0.00,,,0.00,568.0,meteohub,2013-01-22 15:52:00,
2013-01-22 10:57:00,71.4,40.8,-100.00,NNW,337,7.0,12.0,33,0.00,,,0.00,292.0,meteohub,2013-01-22 15:57:00,
2013-01-22 11:02:00,71.4,42.3,-100.00,NNW,348,7.0,12.0,35,0.00,,,0.00,380.0,meteohub,2013-01-22 16:02:00,
2013-01-22 11:12:00,71.4,43.2,-100.00,NNW,343,10.0,12.0,36,0.00,,,0.00,538.0,meteohub,2013-01-22 16:12:00,
2013-01-22 11:17:00,71.6,43.2,-100.00,North,350,6.0,13.0,36,0.00,,,0.00,304.0,meteohub,2013-01-22 16:17:00,
2013-01-22 11:22:00,71.6,43.9,-100.00,NNW,341,8.0,13.0,37,0.00,,,0.00,283.0,meteohub,2013-01-22 16:22:00,
2013-01-22 11:32:00,71.8,44.8,-100.00,NNW,338,4.0,14.0,38,0.00,,,0.00,388.0,meteohub,2013-01-22 16:32:00,
2013-01-22 11:37:00,72.3,46.0,-100.00,NNW,341,10.0,14.0,39,0.00,,,0.00,352.0,meteohub,2013-01-22 16:37:00,
2013-01-22 11:42:00,72.3,46.6,-100.00,North,355,12.0,14.0,40,0.00,,,0.00,454.0,meteohub,2013-01-22 16:42:00,
2013-01-22 11:47:00,72.7,47.7,-100.00,North,349,6.0,14.0,41,0.00,,,0.00,921.0,meteohub,2013-01-22 16:47:00,
2013-01-22 11:52:00,73.6,48.4,-100.00,NNW,343,10.0,14.0,41,0.00,,,0.00,856.0,meteohub,2013-01-22 16:52:00,
2013-01-22 11:57:00,74.7,52.0,-100.00,NW,319,10.0,14.0,45,0.00,,,0.00,963.0,meteohub,2013-01-22 16:57:00,
2013-01-22 12:02:00,74.8,52.7,-100.00,North,0,6.0,14.0,46,0.00,,,0.00,454.0,meteohub,2013-01-22 17:02:00,
2013-01-22 12:07:00,74.1,52.5,-100.00,North,11,7.0,14.0,47,0.00,,,0.00,383.0,meteohub,2013-01-22 17:07:00,
2013-01-22 12:12:00,73.9,52.5,-100.00,NNE,19,9.0,14.0,47,0.00,,,0.00,380.0,meteohub,2013-01-22 17:12:00,
2013-01-22 12:17:00,73.8,52.9,-100.00,NNW,346,12.0,15.0,48,0.00,,,0.00,434.0,meteohub,2013-01-22 17:17:00,
2013-01-22 12:27:00,73.9,53.1,-100.00,NNW,333,9.0,15.0,48,0.00,,,0.00,338.0,meteohub,2013-01-22 17:27:00,
2013-01-22 12:37:00,74.5,54.1,-100.00,NNW,340,9.0,15.0,49,0.00,,,0.00,809.0,meteohub,2013-01-22 17:37:00,
2013-01-22 12:42:00,74.7,55.4,-100.00,NNW,344,7.0,15.0,51,0.00,,,0.00,564.0,meteohub,2013-01-22 17:42:00,
2013-01-22 12:52:00,74.7,55.9,-100.00,NE,38,10.0,15.0,52,0.00,,,0.00,682.0,meteohub,2013-01-22 17:52:00,
2013-01-22 12:57:00,74.8,56.1,-100.00,NNW,335,11.0,15.0,52,0.00,,,0.00,872.0,meteohub,2013-01-22 17:57:00,
2013-01-22 13:07:00,74.8,55.6,-100.00,NNW,334,7.0,15.0,51,0.00,,,0.00,863.0,meteohub,2013-01-22 18:07:00,
2013-01-22 13:12:00,74.8,56.1,-100.00,NNW,331,9.0,15.0,52,0.00,,,0.00,485.0,meteohub,2013-01-22 18:12:00,
2013-01-22 13:22:00,74.8,55.6,-100.00,NNW,328,10.0,17.0,51,0.00,,,0.00,891.0,meteohub,2013-01-22 18:22:00,
2013-01-22 13:32:00,73.9,54.7,-100.00,North,9,10.0,17.0,51,0.00,,,0.00,773.0,meteohub,2013-01-22 18:32:00,
2013-01-22 13:37:00,73.6,54.3,-100.00,North,355,10.0,19.0,51,0.00,,,0.00,292.0,meteohub,2013-01-22 18:37:00,
2013-01-22 13:42:00,73.8,54.5,-100.00,North,350,12.0,19.0,51,0.00,,,0.00,717.0,meteohub,2013-01-22 18:42:00,
2013-01-22 13:47:00,73.9,55.2,-100.00,North,0,15.0,19.0,52,0.00,,,0.00,541.0,meteohub,2013-01-22 18:47:00,
2013-01-22 13:57:00,73.9,54.7,-100.00,North,0,14.0,18.0,51,0.00,,,0.00,573.0,meteohub,2013-01-22 18:57:00,
2013-01-22 14:07:00,73.0,54.3,-100.00,NNW,344,11.0,18.0,52,0.00,,,0.00,237.0,meteohub,2013-01-22 19:07:00,
2013-01-22 14:12:00,72.3,53.2,-100.00,NNW,333,7.0,18.0,51,0.00,,,0.00,265.0,meteohub,2013-01-22 19:12:00,
2013-01-22 14:22:00,72.9,53.6,-100.00,NNW,348,11.0,19.0,51,0.00,,,0.00,480.0,meteohub,2013-01-22 19:22:00,
2013-01-22 14:32:00,72.0,53.4,-100.00,North,355,10.0,22.0,52,0.00,,,0.00,258.0,meteohub,2013-01-22 19:32:00,
2013-01-22 14:37:00,71.4,52.9,-100.00,North,5,6.0,22.0,52,0.00,,,0.00,322.0,meteohub,2013-01-22 19:37:00,
2013-01-22 14:42:00,71.6,53.1,-100.00,NNW,347,7.0,22.0,52,0.00,,,0.00,278.0,meteohub,2013-01-22 19:42:00,
2013-01-22 14:47:00,71.4,52.9,-100.00,NNW,344,11.0,22.0,52,0.00,,,0.00,239.0,meteohub,2013-01-22 19:47:00,
2013-01-22 14:52:00,71.4,52.9,-100.00,North,349,12.0,19.0,52,0.00,,,0.00,253.0,meteohub,2013-01-22 19:52:00,
2013-01-22 15:02:00,71.8,53.8,-100.00,NNW,336,9.0,19.0,53,0.00,,,0.00,246.0,meteohub,2013-01-22 20:02:00,
2013-01-22 15:07:00,71.8,53.8,-100.00,NNW,342,10.0,19.0,53,0.00,,,0.00,258.0,meteohub,2013-01-22 20:07:00,
2013-01-22 15:17:00,71.6,53.6,-100.00,NNW,333,15.0,19.0,53,0.00,,,0.00,258.0,meteohub,2013-01-22 20:17:00,
2013-01-22 15:22:00,71.8,53.8,-100.00,NNE,24,12.0,19.0,53,0.00,,,0.00,323.0,meteohub,2013-01-22 20:22:00,
2013-01-22 15:32:00,72.3,54.7,-100.00,NNW,346,11.0,19.0,54,0.00,,,0.00,404.0,meteohub,2013-01-22 20:32:00,
2013-01-22 15:37:00,72.9,55.2,-100.00,NNE,21,12.0,19.0,54,0.00,,,0.00,550.0,meteohub,2013-01-22 20:37:00,
2013-01-22 15:42:00,73.6,55.9,-100.00,North,355,9.0,19.0,54,0.00,,,0.00,519.0,meteohub,2013-01-22 20:42:00,
2013-01-22 15:47:00,74.1,56.8,-100.00,North,0,14.0,19.0,55,0.00,,,0.00,504.0,meteohub,2013-01-22 20:47:00,
2013-01-22 15:52:00,74.1,56.8,-100.00,NNW,348,14.0,18.0,55,0.00,,,0.00,492.0,meteohub,2013-01-22 20:52:00,
2013-01-22 16:02:00,73.6,55.9,-100.00,NW,322,6.0,18.0,54,0.00,,,0.00,169.0,meteohub,2013-01-22 21:02:00,
2013-01-22 16:12:00,72.1,55.0,-100.00,North,355,9.0,18.0,55,0.00,,,0.00,69.0,meteohub,2013-01-22 21:12:00,
2013-01-22 16:17:00,71.4,54.0,-100.00,NNW,332,11.0,18.0,54,0.00,,,0.00,123.0,meteohub,2013-01-22 21:17:00,
2013-01-22 16:22:00,71.2,53.8,-100.00,NNW,332,11.0,18.0,54,0.00,,,0.00,169.0,meteohub,2013-01-22 21:22:00,
2013-01-22 16:32:00,71.6,54.1,-100.00,NE,34,13.0,18.0,54,0.00,,,0.00,146.0,meteohub,2013-01-22 21:32:00,
2013-01-22 16:42:00,71.1,54.1,-100.00,ENE,60,7.0,18.0,55,0.00,,,0.00,72.0,meteohub,2013-01-22 21:42:00,
2013-01-22 16:47:00,70.7,53.2,-100.00,North,5,9.0,18.0,54,0.00,,,0.00,56.0,meteohub,2013-01-22 21:47:00,
2013-01-22 16:52:00,70.3,52.9,-100.00,NW,304,9.0,18.0,54,0.00,,,0.00,70.0,meteohub,2013-01-22 21:52:00,
2013-01-22 16:57:00,70.2,52.7,-100.00,NW,317,8.0,18.0,54,0.00,,,0.00,58.0,meteohub,2013-01-22 21:57:00,
2013-01-22 17:07:00,70.2,52.7,-100.00,NNW,329,10.0,18.0,54,0.00,,,0.00,65.0,meteohub,2013-01-22 22:07:00,
2013-01-22 17:12:00,70.0,52.5,-100.00,NNW,336,9.0,18.0,54,0.00,,,0.00,53.0,meteohub,2013-01-22 22:12:00,
2013-01-22 17:22:00,69.8,52.9,-100.00,West,265,7.0,16.0,55,0.00,,,0.00,40.0,meteohub,2013-01-22 22:22:00,
2013-01-22 17:32:00,69.6,52.2,-100.00,NNW,333,9.0,14.0,54,0.00,,,0.00,30.0,meteohub,2013-01-22 22:32:00,
2013-01-22 17:37:00,69.4,52.5,-100.00,NNW,333,9.0,14.0,55,0.00,,,0.00,23.0,meteohub,2013-01-22 22:37:00,
2013-01-22 17:42:00,69.4,52.5,-100.00,NNW,342,5.0,14.0,55,0.00,,,0.00,12.0,meteohub,2013-01-22 22:42:00,
2013-01-22 17:47:00,69.4,52.5,-100.00,NNE,21,12.0,14.0,55,0.00,,,0.00,7.0,meteohub,2013-01-22 22:47:00,
2013-01-22 17:52:00,69.3,52.9,-100.00,NNW,344,9.0,16.0,56,0.00,,,0.00,0.0,meteohub,2013-01-22 22:52:00,
2013-01-22 17:57:00,69.1,52.7,-100.00,NNW,338,6.0,16.0,56,0.00,,,0.00,0.0,meteohub,2013-01-22 22:57:00,
2013-01-22 18:02:00,69.1,52.2,-100.00,NE,46,7.0,16.0,55,0.00,,,0.00,0.0,meteohub,2013-01-22 23:02:00,
2013-01-22 18:12:00,69.1,52.7,-100.00,NW,320,10.0,16.0,56,0.00,,,0.00,0.0,meteohub,2013-01-22 23:12:00,
2013-01-22 18:17:00,69.1,52.7,-100.00,NNW,338,6.0,14.0,56,0.00,,,0.00,0.0,meteohub,2013-01-22 23:17:00,
2013-01-22 18:22:00,69.1,52.7,-100.00,NNW,336,4.0,14.0,56,0.00,,,0.00,0.0,meteohub,2013-01-22 23:22:00,
2013-01-22 18:27:00,69.1,52.7,-100.00,NNE,16,11.0,14.0,56,0.00,,,0.00,0.0,meteohub,2013-01-22 23:27:00,
2013-01-22 18:32:00,69.1,52.7,-100.00,NNW,340,7.0,14.0,56,0.00,,,0.00,0.0,meteohub,2013-01-22 23:32:00,
2013-01-22 18:37:00,68.9,52.5,-100.00,NNW,342,9.0,13.0,56,0.00,,,0.00,0.0,meteohub,2013-01-22 23:37:00,
2013-01-22 18:47:00,68.9,52.5,-100.00,NNW,340,9.0,13.0,56,0.00,,,0.00,0.0,meteohub,2013-01-22 23:47:00,
2013-01-22 18:57:00,68.7,52.3,-100.00,NW,314,9.0,13.0,56,0.00,,,0.00,0.0,meteohub,2013-01-22 23:57:00,
2013-01-22 19:02:00,68.7,52.3,-100.00,NW,315,7.0,15.0,56,0.00,,,0.00,0.0,meteohub,2013-01-23 00:02:00,
2013-01-22 19:07:00,68.7,52.3,-100.00,NNW,331,4.0,15.0,56,0.00,,,0.00,0.0,meteohub,2013-01-23 00:07:00,
2013-01-22 19:12:00,68.7,52.3,-100.00,NW,305,9.0,15.0,56,0.00,,,0.00,0.0,meteohub,2013-01-23 00:12:00,
2013-01-22 19:17:00,68.5,52.2,-100.00,WNW,299,6.0,15.0,56,0.00,,,0.00,0.0,meteohub,2013-01-23 00:17:00,
2013-01-22 19:27:00,68.7,52.3,-100.00,NW,319,7.0,14.0,56,0.00,,,0.00,0.0,meteohub,2013-01-23 00:27:00,
2013-01-22 19:32:00,68.7,52.3,-100.00,NW,307,7.0,14.0,56,0.00,,,0.00,0.0,meteohub,2013-01-23 00:32:00,
2013-01-22 19:42:00,68.7,52.3,-100.00,West,273,6.0,14.0,56,0.00,,,0.00,0.0,meteohub,2013-01-23 00:42:00,
2013-01-22 19:47:00,68.7,52.3,-100.00,WNW,296,5.0,14.0,56,0.00,,,0.00,0.0,meteohub,2013-01-23 00:47:00,
2013-01-22 19:52:00,68.5,52.2,-100.00,North,10,7.0,14.0,56,0.00,,,0.00,0.0,meteohub,2013-01-23 00:52:00,
2013-01-22 19:57:00,68.5,52.2,-100.00,NNW,334,9.0,12.0,56,0.00,,,0.00,0.0,meteohub,2013-01-23 00:57:00,
2013-01-22 20:07:00,68.5,52.2,-100.00,WNW,294,10.0,12.0,56,0.00,,,0.00,0.0,meteohub,2013-01-23 01:07:00,
2013-01-22 20:17:00,68.5,52.2,-100.00,NW,319,5.0,13.0,56,0.00,,,0.00,0.0,meteohub,2013-01-23 01:17:00,
2013-01-22 20:22:00,68.5,52.2,-100.00,North,0,9.0,13.0,56,0.00,,,0.00,0.0,meteohub,2013-01-23 01:22:00,
2013-01-22 20:27:00,68.4,52.0,-100.00,NNW,344,12.0,13.0,56,0.00,,,0.00,0.0,meteohub,2013-01-23 01:27:00,
2013-01-22 20:32:00,68.4,52.0,-100.00,NNW,329,8.0,16.0,56,0.00,,,0.00,0.0,meteohub,2013-01-23 01:32:00,
2013-01-22 20:42:00,68.4,52.0,-100.00,WNW,301,10.0,16.0,56,0.00,,,0.00,0.0,meteohub,2013-01-23 01:42:00,
2013-01-22 20:47:00,68.4,52.0,-100.00,WNW,300,6.0,16.0,56,0.00,,,0.00,0.0,meteohub,2013-01-23 01:47:00,
2013-01-22 20:52:00,68.4,52.0,-100.00,WNW,289,5.0,13.0,56,0.00,,,0.00,0.0,meteohub,2013-01-23 01:52:00,
2013-01-22 20:57:00,68.4,52.0,-100.00,WNW,286,5.0,13.0,56,0.00,,,0.00,0.0,meteohub,2013-01-23 01:57:00,
2013-01-22 21:02:00,68.4,52.0,-100.00,North,0,13.0,13.0,56,0.00,,,0.00,0.0,meteohub,2013-01-23 02:02:00,
2013-01-22 21:07:00,68.4,52.0,-100.00,NW,304,9.0,13.0,56,0.00,,,0.00,0.0,meteohub,2013-01-23 02:07:00,
2013-01-22 21:17:00,68.2,51.8,-100.00,WNW,291,5.0,14.0,56,0.00,,,0.00,0.0,meteohub,2013-01-23 02:17:00,
2013-01-22 21:22:00,68.2,51.8,-100.00,NW,308,6.0,14.0,56,0.00,,,0.00,0.0,meteohub,2013-01-23 02:22:00,
2013-01-22 21:27:00,68.4,52.0,-100.00,NNW,327,9.0,14.0,56,0.00,,,0.00,0.0,meteohub,2013-01-23 02:27:00,
2013-01-22 21:32:00,68.2,51.8,-100.00,NNW,348,10.0,15.0,56,0.00,,,0.00,0.0,meteohub,2013-01-23 02:32:00,
2013-01-22 21:37:00,68.2,51.8,-100.00,NNE,28,7.0,15.0,56,0.00,,,0.00,0.0,meteohub,2013-01-23 02:37:00,
2013-01-22 21:42:00,68.2,51.8,-100.00,East,101,6.0,15.0,56,0.00,,,0.00,0.0,meteohub,2013-01-23 02:42:00,
2013-01-22 21:52:00,68.0,51.8,-100.00,NW,309,5.0,14.0,56,0.00,,,0.00,0.0,meteohub,2013-01-23 02:52:00,
2013-01-22 22:02:00,67.8,51.6,-100.00,NW,310,8.0,14.0,56,0.00,,,0.00,0.0,meteohub,2013-01-23 03:02:00,
2013-01-22 22:07:00,67.8,51.6,-100.00,South,175,7.0,14.0,56,0.00,,,0.00,0.0,meteohub,2013-01-23 03:07:00,
2013-01-22 22:12:00,67.8,51.6,-100.00,NW,319,7.0,14.0,56,0.00,,,0.00,0.0,meteohub,2013-01-23 03:12:00,
2013-01-22 22:17:00,67.6,51.4,-100.00,SE,129,6.0,14.0,56,0.00,,,0.00,0.0,meteohub,2013-01-23 03:17:00,
2013-01-22 22:27:00,67.6,51.4,-100.00,NNW,332,6.0,14.0,56,0.00,,,0.00,0.0,meteohub,2013-01-23 03:27:00,
2013-01-22 22:32:00,67.6,51.4,-100.00,NNE,24,5.0,12.0,56,0.00,,,0.00,0.0,meteohub,2013-01-23 03:32:00,
2013-01-22 22:42:00,67.6,51.4,-100.00,WNW,283,12.0,12.0,56,0.00,,,0.00,0.0,meteohub,2013-01-23 03:42:00,
2013-01-22 22:47:00,67.6,51.4,-100.00,ENE,58,7.0,12.0,56,0.00,,,0.00,0.0,meteohub,2013-01-23 03:47:00,
2013-01-22 22:57:00,67.6,51.4,-100.00,WNW,298,3.0,12.0,56,0.00,,,0.00,0.0,meteohub,2013-01-23 03:57:00,
2013-01-22 23:07:00,67.5,51.3,-100.00,NNW,343,4.0,12.0,56,0.00,,,0.00,0.0,meteohub,2013-01-23 04:07:00,
2013-01-22 23:12:00,67.5,51.3,-100.00,WNW,302,8.0,12.0,56,0.00,,,0.00,0.0,meteohub,2013-01-23 04:12:00,
2013-01-22 23:17:00,67.5,51.3,-100.00,NW,306,4.0,12.0,56,0.00,,,0.00,0.0,meteohub,2013-01-23 04:17:00,
2013-01-22 23:22:00,67.5,51.3,-100.00,NNW,327,5.0,14.0,56,0.00,,,0.00,0.0,meteohub,2013-01-23 04:22:00,
2013-01-22 23:32:00,67.5,51.3,-100.00,WNW,299,5.0,14.0,56,0.00,,,0.00,0.0,meteohub,2013-01-23 04:32:00,
2013-01-22 23:37:00,67.5,51.3,-100.00,NNW,346,11.0,14.0,56,0.00,,,0.00,0.0,meteohub,2013-01-23 04:37:00,
2013-01-22 23:42:00,67.5,51.3,-100.00,NNW,333,11.0,14.0,56,0.00,,,0.00,0.0,meteohub,2013-01-23 04:42:00,
2013-01-22 23:47:00,67.5,51.3,-100.00,NW,311,5.0,14.0,56,0.00,,,0.00,0.0,meteohub,2013-01-23 04:47:00,
2013-01-22 23:52:00,67.5,51.3,-100.00,NW,323,6.0,13.0,56,0.00,,,0.00,0.0,meteohub,2013-01-23 04:52:00,
2013-01-22 23:57:00,67.5,51.3,-100.00,NW,319,5.0,13.0,56,0.00,,,0.00,0.0,meteohub,2013-01-23 04:57:00,